User: anonymous
Location: Unspecified
(0.0000°N, 0.0000°E)
Time: 19:56:47
(UTC+00:00)
Language:

LANDSAT 8 - Orbit

View from above orbital plane
View from above orbital plane
View from above satellite
View from above satellite

Ground track
Ground track

The orbit data is extracted from the following two-line orbital elements,

1 39084U 13008A   14294.27008879  .00000408  00000-0  10059-3 0  6264
2 39084 098.2100 002.7636 0001035 084.3626 275.7684 14.57113935 89812
Epoch (UTC): 21 October 2014 06:28:55
Eccentricity: 0.0001035
inclination: 98.2100°
perigee height: 702 km
apogee height: 703 km
right ascension of ascending node: 2.7636°
argument of perigee: 84.3626°
revolutions per day: 14.57113935
mean anomaly at epoch: 275.7684°
orbit number at epoch: 8981

The dashed part of the orbit path shows where the satellite is in the earth's shadow,  

DLR